Temperature
29 30 30 30 29 29 30 30 30 30 29 29 28 27 26 25 23 23 22 21 21 20 19 19 19 18 18 18 18 18 17 17 17 17 16 16 16 16 16 15 15 15 15 15
28 29 29 29 29 29 29 29 29 29 29 29 27 26 25 24 23 23 22 21 20 20 19 18 18 18 18 18 17 17 17 17 17 17 16 16 16 16 15 15 15 15 15 15
28 29 28 28 29 29 29 29 29 29 28 28 26 25 24 23 23 22 21 21 20 19 19 18 18 18 18 17 17 17 17 17 17 16 16 16 16 15 15 15 15 15 14 14
28 27 26 28 29 29 28 28 29 28 28 27 26 24 23 22 22 21 20 20 19 19 18 18 18 17 17 17 17 17 17 17 16 16 16 16 15 15 15 15 15 14 14 14
27 27 27 27 27 28 28 27 28 28 27 26 24 24 22 21 20 20 19 19 18 18 18 18 17 17 17 17 17 16 16 16 16 16 16 15 15 15 15 14 14 14 14 14
26 26 26 27 27 26 27 26 26 26 26 25 24 26 24 20 20 19 18 18 18 17 17 17 17 17 16 16 16 16 16 16 16 16 15 15 15 15 14 14 14 14 13 13
26 26 26 26 26 26 26 25 25 25 24 24 24 24 21 19 19 18 18 17 17 17 17 16 16 16 16 16 16 16 15 15 15 15 15 15 14 14 14 14 14 13 13 13
25 25 25 25 25 25 24 23 23 23 23 23 21 20 19 18 18 17 17 17 17 16 16 16 16 16 15 15 15 15 15 15 15 15 14 14 14 14 14 13 13 13 13 13
25 24 23 23 23 22 22 22 22 22 22 21 20 19 18 18 17 17 16 16 16 16 15 15 15 15 15 15 15 15 15 14 14 14 14 14 14 14 13 13 13 13 13 13
23 23 22 22 21 21 21 21 21 21 20 20 19 19 18 17 17 16 16 16 16 15 15 15 15 14 14 14 14 14 14 14 14 13 13 13 13 13 13 13 13 13 13 12
22 22 21 21 20 20 20 20 20 19 19 19 19 18 18 17 16 16 16 15 15 15 15 15 14 14 14 14 14 14 14 14 13 13 13 13 13 13 13 12 12 12 12 12
22 21 21 21 19 19 19 19 19 19 18 18 18 18 18 17 16 16 15 15 15 14 14 14 14 14 14 14 13 13 13 13 13 13 13 13 12 12 12 12 12 12 12 11
20 19 19 19 19 19 19 18 18 18 18 18 17 17 17 17 16 16 15 15 14 14 14 14 14 13 13 13 13 13 13 13 13 13 13 13 12 12 12 12 12 12 11 11
18 18 18 18 18 18 18 18 17 17 17 17 17 16 16 16 16 15 15 14 14 14 14 13 13 13 13 13 13 13 13 13 12 12 12 12 12 12 12 12 12 12 11 11
17 18 18 18 17 17 17 17 17 17 16 16 16 16 16 15 15 15 14 14 14 14 13 13 13 13 13 12 12 12 13 12 12 12 12 12 12 12 12 12 11 11 11 11
17 17 17 17 17 17 17 17 17 16 16 16 16 15 15 15 15 14 14 14 14 14 13 13 13 12 12 12 12 12 12 12 11 11 12 12 12 11 11 11 11 11 11 11
17 17 17 17 17 17 17 16 16 16 16 16 15 15 15 14 14 14 14 14 13 13 13 13 12 12 12 12 12 12 12 12 12 11 11 11 11 11 11 11 11 11 10 10
17 17 17 17 17 16 16 16 16 16 15 15 15 15 14 14 14 14 13 13 13 13 13 12 12 12 12 12 12 12 12 12 11 11 11 11 11 11 11 10 10 10 10 10
16 16 16 16 16 16 16 15 15 15 15 15 14 14 14 14 13 13 13 13 13 12 12 12 12 12 12 12 12 11 11 11 11 11 11 11 10 10 10 10 10 10 10 9
15 15 15 15 15 15 15 15 14 14 14 14 14 14 13 13 13 13 12 12 13 12 12 12 12 11 11 11 11 11 11 11 11 11 11 11 10 10 10 10 10 9 9 9
15 15 15 15 14 14 14 14 14 14 14 14 14 13 13 13 13 12 12 12 12 12 12 11 11 11 11 11 11 11 11 11 11 11 11 11 10 10 10 10 9 9 9 9
14 14 14 14 14 14 13 13 13 13 13 13 13 13 13 12 12 12 12 12 12 12 11 11 11 11 11 11 11 11 11 11 11 11 10 10 10 10 10 9 9 9 9 9
14 14 14 13 13 13 13 13 13 13 13 13 13 13 12 12 12 12 12 12 12 12 11 11 11 11 10 10 10 10 10 10 10 10 10 10 10 9 9 9 9 9 8 8
13 13 13 13 13 13 13 13 13 12 12 12 12 12 12 12 12 12 12 12 12 11 11 11 11 10 10 10 10 10 10 10 10 10 10 10 9 9 9 8 8 8 8 8
13 13 13 12 12 12 12 12 12 12 12 12 12 12 12 12 12 12 12 12 11 11 11 11 10 10 10 10 10 10 10 10 10 10 10 9 9 9 9 8 8 8 8 8
12 12 12 12 12 12 12 12 12 12 12 12 12 12 12 12 12 11 11 11 11 11 11 10 10 10 10 10 10 9 9 9 9 9 9 9 9 9 8 8 8 8 8 7
12 12 12 12 12 12 12 12 12 12 12 12 12 12 12 11 11 11 11 11 11 10 10 10 10 10 10 9 9 9 9 9 9 9 9 9 8 8 8 8 8 7 7 7
Wind_Speed
10 7 7 9 9 11 12 11 10 7 6 3 3 3 3 4 5 5 6 5 5 5 5 5 6 5 5 5 5 5 5 5 4 3 3 2 2 2 2 1 1 0 1 1
11 10 9 10 10 11 11 10 10 8 6 2 3 3 4 4 5 5 5 5 5 5 5 5 5 6 6 5 5 5 5 4 4 3 3 2 2 2 2 1 0 1 1 1
11 10 11 13 10 10 10 9 9 9 6 5 5 5 4 4 4 4 4 5 5 5 5 5 5 5 5 5 5 5 5 4 4 3 2 2 2 2 1 1 1 1 2 2
9 9 14 6 3 6 8 7 7 6 4 5 5 5 4 3 3 3 3 4 4 4 4 5 5 5 5 5 5 5 4 4 4 3 3 3 2 2 1 1 1 1 2 2
9 13 11 5 4 6 8 7 6 6 5 5 6 6 5 3 3 3 3 3 4 4 5 5 5 5 5 5 5 5 4 3 3 3 3 2 2 1 1 1 0 0 1 2
10 13 12 5 3 3 6 8 4 5 6 7 7 7 4 5 4 4 4 4 4 5 5 5 5 5 5 5 5 4 3 3 2 2 2 2 1 1 1 1 0 0 1 2
12 12 8 1 2 5 8 3 1 3 5 6 6 1 5 7 6 5 5 5 6 6 5 5 5 5 5 4 4 3 3 3 3 2 2 2 2 1 1 1 1 1 1 1
10 12 8 1 4 4 1 2 1 1 3 4 4 5 6 7 7 6 6 6 6 6 6 5 5 5 5 4 3 3 3 3 3 2 1 2 2 1 1 0 1 1 1 1
5 3 2 1 0 1 2 1 1 2 3 5 6 6 6 7 7 7 6 6 6 6 6 5 5 5 4 3 3 3 2 2 2 2 2 1 1 1 1 1 1 1 1 1
3 3 1 0 1 1 2 1 0 2 3 5 5 6 7 6 7 7 6 6 6 6 6 5 5 4 4 3 3 3 3 2 2 2 2 1 0 0 0 1 1 1 2 2
5 3 2 1 1 1 1 1 2 3 4 4 5 6 7 6 6 6 6 6 6 6 6 5 5 4 4 3 3 3 3 2 2 2 2 1 1 0 0 1 1 2 2 2
4 2 2 1 0 1 2 3 3 4 4 4 5 6 6 6 6 6 6 6 6 6 5 5 4 4 3 3 3 3 2 2 2 2 2 2 2 2 2 2 2 1 1 3
2 2 1 1 1 1 2 3 3 3 4 4 5 5 5 5 6 6 6 6 6 5 5 4 4 3 3 3 2 2 2 2 2 1 2 2 2 2 2 3 5 5 4 3
1 1 2 2 1 2 2 3 3 4 4 4 4 5 5 5 6 6 5 5 5 5 5 4 3 3 3 3 3 3 2 2 2 2 2 3 3 3 3 3 2 2 5 7
2 2 2 2 2 2 3 4 4 4 4 4 4 4 4 5 5 5 5 4 4 4 3 3 2 2 2 3 3 3 2 2 2 2 2 3 3 4 4 4 4 3 2 3
3 2 3 4 3 3 4 5 4 4 4 4 3 4 4 5 4 4 4 4 4 3 3 2 2 2 2 2 3 3 2 2 3 3 3 3 3 4 4 4 4 4 3 2
3 3 4 4 4 4 5 5 5 4 4 4 4 5 5 5 5 4 4 4 3 3 3 2 2 1 2 3 3 3 3 3 5 4 3 3 3 4 4 5 4 4 3 1
4 4 4 4 4 4 4 5 5 5 5 5 5 6 6 6 5 5 4 4 4 3 2 2 2 2 3 3 3 3 3 3 3 3 3 3 4 4 4 4 4 5 4 2
2 2 2 3 3 4 4 4 5 5 4 5 6 6 6 6 5 5 4 4 4 3 2 2 2 3 3 2 3 3 3 4 4 3 3 3 4 4 4 4 5 4 4 4
1 1 1 2 2 3 3 3 4 4 5 5 5 5 5 5 5 5 4 3 2 1 2 2 2 3 3 3 4 4 4 4 4 3 4 4 4 4 4 4 4 4 4 4
1 2 2 2 2 2 3 4 4 4 5 5 6 6 5 4 4 4 4 3 2 2 2 3 3 3 3 2 5 5 5 5 4 4 4 4 5 5 4 4 4 4 4 4
1 2 2 2 2 2 2 2 3 4 4 5 5 5 5 5 5 4 3 2 2 2 3 3 3 1 1 3 5 4 5 5 4 4 4 5 5 4 4 4 4 4 4 3
1 2 2 2 2 2 2 3 3 4 4 5 5 5 5 4 3 4 3 3 3 3 3 2 1 2 2 4 4 4 4 4 4 4 4 4 4 4 4 5 4 4 4 3
1 1 2 2 2 3 3 3 3 3 4 4 4 4 4 4 3 3 2 3 3 3 3 2 5 3 5 4 3 4 4 4 4 4 4 4 4 4 4 4 4 4 4 5
1 2 2 2 2 2 3 3 3 4 3 3 3 4 3 3 3 2 2 2 4 4 2 4 7 5 5 3 3 3 3 3 3 4 4 4 4 3 3 4 4 4 4 4
2 2 2 1 1 1 1 1 2 2 2 2 2 2 2 2 2 2 2 2 3 3 2 2 3 4 3 3 3 3 2 2 3 3 3 4 4 4 4 4 5 4 4 4
2 2 2 2 2 1 1 1 1 1 1 1 1 2 2 2 2 1 1 1 1 2 1 1 2 2 2 2 2 2 2 2 2 3 3 3 3 3 3 4 4 4 4 4
Wind_Direction
250 253 242 232 230 228 239 255 263 261 252 225 175 164 160 153 157 162 160 161 154 146 139 145 146 146 148 148 146 146 154 158 157 158 165 177 175 171 176 207 231 251 307 328
239 235 234 238 234 233 238 245 250 252 250 205 165 162 160 167 174 177 173 173 165 154 150 156 153 155 154 151 147 152 160 158 153 157 166 179 187 186 181 183 255 292 293 306
233 223 229 233 235 236 236 240 243 250 241 182 182 182 184 183 179 177 175 174 169 167 165 161 158 158 158 152 151 156 161 157 152 159 166 179 181 170 175 190 211 264 299 310
237 222 238 242 222 235 237 241 248 247 218 195 186 167 170 179 177 166 161 163 164 163 156 153 150 149 150 151 153 154 152 153 154 166 176 181 179 173 189 230 248 280 310 312
238 237 238 220 217 228 234 239 241 236 205 184 161 161 157 156 159 157 153 157 157 153 146 141 144 147 148 153 152 151 149 150 154 164 163 164 167 166 185 230 272 331 328 319
238 245 246 233 195 230 237 232 221 225 208 194 191 217 184 154 144 130 125 129 137 137 134 134 140 141 144 147 149 151 151 153 156 154 149 137 120 118 101 113 95 34 40 356
237 244 248 278 205 200 228 245 166 214 211 205 211 258 118 134 130 119 121 123 126 126 122 124 135 140 141 136 146 147 141 142 141 137 139 123 111 112 111 84 74 61 55 15
235 241 241 114 191 220 287 21 22 200 194 181 140 123 129 135 137 132 127 128 128 124 117 116 124 132 132 131 122 127 135 138 137 138 130 117 117 116 99 97 151 113 66 4
243 242 74 115 89 28 338 300 231 186 165 156 151 147 142 142 144 141 137 136 134 129 124 117 117 124 125 116 113 120 123 120 119 122 119 126 146 145 165 197 296 346 346 349
232 212 199 237 336 330 324 318 213 156 151 157 154 152 149 148 148 146 145 145 142 137 131 123 117 119 117 114 119 129 129 131 140 149 147 128 127 92 3 349 332 328 326 325
229 227 227 190 17 4 80 107 127 137 144 150 148 151 152 150 150 149 147 146 143 140 138 136 132 128 125 117 123 131 134 147 166 172 157 160 173 353 254 353 348 309 312 318
240 213 238 224 59 92 109 126 132 138 141 142 145 147 152 150 148 149 148 145 144 145 145 143 140 135 132 137 143 155 166 177 184 185 182 200 195 185 148 186 142 169 320 306
260 265 276 220 188 152 131 125 124 132 139 138 138 144 148 148 148 147 146 147 151 152 150 149 148 146 150 154 159 178 206 220 221 210 207 225 227 232 233 196 186 190 202 228
179 159 167 185 189 159 140 132 130 123 126 131 131 138 146 147 146 146 147 152 154 155 158 161 161 164 168 174 184 199 219 210 243 246 238 244 248 251 259 268 262 243 200 191
214 229 199 184 163 153 149 145 142 138 131 130 133 144 154 154 150 148 150 154 154 160 162 166 175 179 185 196 202 211 218 231 255 268 261 258 262 266 270 271 276 279 275 189
234 206 181 179 174 172 170 168 167 163 159 159 158 156 155 153 153 151 149 156 163 165 164 175 186 193 201 206 211 220 215 198 250 266 264 265 273 281 283 280 275 275 275 293
209 199 195 197 196 194 191 189 185 178 180 184 177 166 164 163 164 166 167 170 170 168 172 177 192 214 216 219 233 241 238 209 206 245 265 274 278 278 283 286 287 284 281 303
226 222 218 217 218 215 207 201 194 187 185 178 172 176 179 180 182 179 176 171 170 176 186 188 196 214 223 232 247 256 252 252 251 259 269 273 277 275 277 281 285 284 287 270
207 208 211 212 214 213 209 206 198 188 180 177 177 180 185 184 182 180 175 180 193 205 207 209 193 223 228 238 258 253 258 255 251 256 266 258 257 269 275 278 278 278 279 276
201 198 197 194 193 193 190 187 183 181 183 180 174 175 178 182 179 176 179 194 212 219 195 201 221 241 243 231 242 254 258 259 262 264 267 268 267 270 273 276 278 276 274 273
197 182 164 160 162 174 168 167 174 178 177 177 177 179 180 180 178 182 195 204 199 210 207 197 230 248 249 252 245 259 260 259 259 261 264 267 269 271 274 274 274 272 272 273
187 176 164 158 151 152 162 173 172 169 169 172 174 173 172 180 186 193 210 230 204 175 221 238 243 230 271 255 251 260 264 265 264 264 270 276 276 275 277 279 278 276 275 277
167 169 165 167 159 154 160 168 165 165 167 171 175 180 187 196 209 212 217 210 208 191 232 255 93 122 229 246 257 260 265 268 271 273 277 282 284 282 282 281 282 279 276 275
155 165 161 153 149 155 161 160 159 162 165 173 186 193 198 202 213 226 229 159 170 192 240 125 133 175 232 241 253 256 256 261 271 276 278 279 278 279 283 283 281 276 273 272
173 162 153 157 165 164 161 164 164 168 180 187 186 189 206 207 208 213 214 203 176 201 217 157 167 205 235 252 258 262 259 268 278 282 282 287 286 280 277 279 280 278 275 273
177 187 166 169 149 136 162 175 182 180 179 178 177 178 180 173 170 179 197 198 188 187 203 183 192 220 244 249 250 257 270 276 276 275 289 289 286 284 281 281 281 282 284 284
172 165 156 154 156 165 176 198 198 195 189 184 181 162 148 139 137 149 171 193 183 183 188 197 223 243 248 243 245 257 269 272 278 284 289 294 295 291 288 287 289 291 289 286
Height
1465 1463 1464 1467 1469 1469 1471 1470 1473 1472 1472 1474 1476 1480 1483 1487 1490 1492 1494 1496 1498 1499 1500 1502 1503 1504 1506 1507 1508 1510 1511 1512 1513 1514 1515 1515 1516 1516 1515 1515 1515 1514 1513 1513
1469 1464 1465 1468 1466 1466 1468 1467 1468 1470 1472 1472 1477 1481 1484 1487 1489 1491 1493 1495 1496 1498 1499 1500 1501 1503 1504 1505 1507 1508 1510 1511 1512 1513 1513 1513 1514 1514 1514 1514 1513 1513 1512 1512
1470 1464 1467 1471 1465 1464 1466 1465 1466 1470 1471 1473 1477 1481 1484 1486 1488 1490 1492 1494 1495 1496 1498 1499 1500 1501 1503 1504 1505 1507 1508 1509 1510 1511 1511 1512 1513 1513 1513 1513 1512 1511 1511 1510
1467 1472 1483 1465 1459 1460 1463 1464 1464 1466 1469 1472 1476 1481 1484 1486 1488 1490 1491 1493 1494 1495 1497 1498 1499 1501 1502 1503 1504 1505 1506 1507 1508 1509 1510 1510 1511 1510 1511 1511 1510 1510 1510 1509
1467 1470 1467 1464 1462 1462 1465 1467 1466 1467 1470 1473 1477 1480 1484 1486 1487 1489 1491 1492 1493 1494 1496 1497 1498 1499 1500 1502 1503 1504 1505 1506 1506 1507 1508 1508 1509 1508 1508 1509 1508 1508 1508 1507
1467 1472 1473 1463 1461 1463 1465 1469 1467 1468 1470 1473 1476 1475 1479 1484 1486 1488 1490 1491 1492 1493 1495 1496 1497 1498 1499 1500 1501 1502 1503 1504 1505 1505 1506 1506 1506 1506 1507 1506 1506 1506 1505 1506
1466 1468 1462 1461 1462 1464 1472 1469 1468 1469 1471 1473 1474 1475 1480 1483 1485 1487 1489 1490 1491 1492 1494 1495 1496 1497 1498 1499 1500 1501 1501 1502 1503 1504 1505 1505 1505 1505 1505 1505 1505 1504 1503 1504
1464 1468 1468 1463 1462 1464 1468 1469 1469 1470 1472 1474 1477 1479 1481 1483 1485 1487 1488 1489 1491 1492 1493 1494 1495 1496 1497 1498 1499 1500 1500 1501 1502 1503 1504 1504 1504 1504 1504 1504 1504 1503 1503 1503
1461 1464 1465 1465 1466 1468 1469 1470 1470 1472 1473 1475 1477 1479 1481 1483 1485 1487 1488 1489 1490 1492 1493 1493 1495 1496 1497 1497 1498 1499 1500 1500 1501 1501 1502 1503 1503 1503 1503 1503 1503 1502 1502 1502
1463 1463 1465 1467 1468 1469 1470 1470 1471 1472 1473 1475 1476 1478 1480 1482 1484 1486 1488 1489 1490 1492 1492 1493 1495 1496 1497 1497 1497 1498 1499 1499 1500 1501 1501 1501 1501 1501 1501 1502 1501 1501 1501 1500
1464 1464 1466 1467 1468 1469 1469 1470 1470 1472 1473 1474 1476 1478 1480 1481 1483 1485 1487 1489 1490 1491 1492 1493 1494 1495 1496 1496 1497 1497 1498 1499 1499 1500 1500 1500 1500 1500 1500 1500 1499 1499 1499 1499
1461 1464 1465 1466 1468 1469 1469 1470 1471 1471 1473 1475 1476 1477 1479 1481 1483 1485 1486 1488 1489 1491 1492 1493 1494 1494 1495 1496 1496 1497 1497 1498 1498 1499 1499 1499 1499 1498 1497 1497 1496 1496 1496 1496
1464 1465 1466 1467 1468 1468 1469 1470 1470 1471 1473 1474 1476 1477 1479 1481 1482 1484 1486 1487 1488 1490 1491 1492 1493 1493 1494 1495 1495 1496 1496 1497 1497 1497 1497 1497 1497 1496 1496 1495 1494 1493 1493 1492
1464 1465 1466 1466 1467 1468 1468 1469 1470 1471 1473 1474 1476 1477 1479 1480 1482 1483 1485 1486 1488 1489 1490 1491 1492 1492 1493 1493 1494 1494 1495 1495 1495 1495 1495 1495 1495 1494 1494 1493 1492 1491 1490 1489
1464 1464 1465 1466 1466 1467 1468 1469 1470 1471 1473 1474 1476 1477 1478 1480 1481 1483 1484 1486 1487 1488 1489 1490 1490 1491 1491 1492 1492 1492 1493 1494 1494 1494 1493 1493 1493 1492 1492 1491 1490 1489 1488 1487
1462 1463 1464 1465 1465 1466 1467 1468 1469 1471 1472 1474 1475 1476 1478 1479 1480 1482 1483 1485 1485 1486 1487 1488 1488 1489 1489 1490 1490 1490 1491 1491 1491 1491 1491 1491 1490 1490 1489 1488 1487 1486 1486 1485
1461 1461 1462 1463 1464 1465 1466 1467 1468 1470 1471 1472 1473 1475 1477 1478 1480 1481 1482 1483 1484 1484 1485 1485 1486 1487 1488 1488 1488 1489 1489 1488 1488 1488 1488 1488 1487 1487 1486 1486 1485 1484 1483 1482
1459 1460 1461 1461 1462 1463 1465 1466 1467 1468 1469 1470 1472 1473 1475 1476 1478 1479 1481 1481 1482 1482 1483 1483 1484 1485 1486 1486 1486 1486 1486 1486 1486 1486 1485 1485 1484 1484 1483 1482 1482 1481 1480 1479
1458 1458 1459 1460 1461 1462 1463 1464 1465 1466 1467 1468 1470 1471 1473 1475 1476 1478 1479 1480 1480 1481 1481 1482 1482 1482 1483 1483 1483 1483 1484 1483 1483 1483 1482 1482 1481 1481 1480 1479 1479 1478 1477 1476
1456 1457 1458 1459 1459 1460 1461 1462 1463 1464 1465 1466 1468 1469 1471 1473 1474 1475 1476 1477 1478 1479 1479 1480 1480 1480 1480 1480 1480 1481 1481 1481 1480 1480 1480 1480 1479 1479 1478 1477 1476 1474 1473 1472
1455 1456 1456 1457 1458 1459 1460 1461 1461 1462 1463 1465 1466 1467 1469 1471 1472 1473 1475 1476 1476 1477 1477 1477 1478 1478 1478 1478 1478 1478 1478 1478 1478 1478 1478 1477 1477 1476 1475 1474 1473 1471 1470 1469
1454 1455 1456 1456 1457 1458 1459 1460 1460 1461 1462 1463 1465 1466 1467 1469 1470 1471 1472 1473 1474 1474 1474 1475 1475 1475 1475 1475 1476 1476 1475 1475 1475 1475 1475 1474 1473 1472 1471 1470 1469 1468 1467 1465
1453 1454 1455 1456 1456 1457 1457 1458 1459 1460 1461 1462 1463 1464 1465 1467 1468 1469 1470 1471 1471 1471 1471 1472 1471 1471 1471 1472 1472 1472 1472 1472 1472 1472 1472 1471 1470 1469 1468 1467 1465 1464 1463 1462
1453 1453 1454 1455 1455 1456 1456 1457 1458 1459 1460 1461 1462 1462 1463 1465 1466 1467 1468 1468 1468 1468 1469 1468 1468 1468 1469 1470 1470 1470 1470 1470 1469 1469 1469 1468 1467 1466 1464 1463 1462 1460 1459 1458
1452 1453 1453 1454 1455 1455 1455 1456 1457 1458 1459 1460 1460 1461 1462 1463 1464 1465 1465 1466 1466 1466 1466 1466 1466 1466 1467 1467 1467 1467 1467 1467 1467 1466 1466 1465 1464 1462 1461 1459 1458 1456 1455 1454
1451 1452 1452 1453 1454 1454 1455 1456 1457 1457 1458 1459 1459 1460 1461 1461 1462 1462 1463 1463 1463 1463 1464 1464 1464 1465 1465 1465 1465 1465 1465 1464 1464 1463 1462 1461 1460 1459 1457 1456 1454 1453 1452 1451
1450 1451 1451 1452 1453 1454 1455 1455 1455 1456 1457 1458 1458 1459 1460 1460 1460 1461 1461 1461 1461 1462 1462 1462 1463 1463 1463 1463 1463 1462 1462 1461 1461 1460 1459 1458 1457 1456 1454 1453 1452 1450 1449 1448